Preview of NWS' New Version of Forecast
This preview is not operational and should not be used for support decisions.

Regional Weather Roundup (RWR)

Issued by National Weather Service (NWS)

                            
000
ASCA42 TJSJ 170110
RWRPR 
PUERTO RICO/U.S. VIRGIN ISLANDS HOURLY WEATHER ROUNDUP
NATIONAL WEATHER SERVICE SAN JUAN PR
900 PM AST SUN JUN 16 2019

PRZ001>002-007>008-010-170200-
PUERTO RICO
  
CITY           SKY/WX    TMP DP  RH WIND       PRES   REMARKS
SAN JUAN LMM   PTCLDY    81  79  94 E9        30.07R                  
AGUADILLA      CLEAR     81  77  89 E13G20    30.08R                  
CEIBA          CLOUDY    84  75  74 E10       30.09R HX  92           
$$

VIZ001>002-170200-
U.S. VIRGIN ISLANDS
  
CITY           SKY/WX    TMP DP  RH WIND       PRES   REMARKS
CHARLOTTE AMA  CLEAR     82  75  78 E9        30.07R                  
CHRISTIANSTED  PTCLDY    81  73  78 E13       30.07R                  
$$

HOURLY WEATHER ROUNDUP FOR THE NEWS MEDIA
  
CITY           SKY/WX    TMP DP  RH WIND       PRES   REMARKS
ORLANDO        LGT RAIN  77  74  90 CALM      30.05R                  
NEW YORK       MOCLDY    71  70  96 SW14      29.83S                  
NEWARK         MOCLDY    74  69  85 SW12      29.82R                  
CHICAGO        CLOUDY    56  51  84 NE13      29.90R                  
HARTFORD       CLOUDY    64  62  93 S8        29.82S                  
BOSTON         CLOUDY    66  63  90 CALM      29.82R                  
DALLAS         CLOUDY    70  65  84 SE5       29.85R                  
PHILADELPHIA   MOCLDY    70  69  97 CALM      29.85R                  
LOS ANGELES    CLOUDY    66  58  75 W14       29.86S                  
WASHINGTON DC  FAIR      82  69  64 SW8       29.85S